Regional Weather Roundup
Issued by NWS

Home | Current Version | Previous Version | Graphics & Text | Print | Product List | Glossary On
Versions: 1 2 3 4 5 6 7 8 9 10 11 12 13 14 15 16 17 18 19 20 21 22 23 24 25 26 27
000
ASUS45 KTFX 240710
RWRMT
MONTANA REGIONAL WEATHER ROUNDUP
NATIONAL WEATHER SERVICE GREAT FALLS MT
100 AM MDT SAT JUN 24 2017

NOTE: "FAIR" INDICATES FEW OR NO CLOUDS BELOW 12000 FEET WITH NO
SIGNIFICANT WEATHER AND/OR OBSTRUCTIONS TO VISIBILITY.

MTZ001>007-043-240800-
WEST OF THE DIVIDE

CITY           SKY/WX    TMP DP  RH WIND       PRES   REMARKS
KALISPELL      CLEAR     48  44  86 S3        30.22R
MISSOULA       CLEAR     57  40  52 CALM      30.23R
BUTTE          CLEAR     50  34  54 CALM      30.32S
MULLAN PASS    CLEAR     54  25  32 N3        30.34S
ANACONDA         N/A     48  36  61 SW6       30.32R
DEER LODGE       N/A     52  37  58 W6        30.32S
EUREKA           N/A     54  39  58 MISG        N/A
$$

MTZ008-052>055-240800-
SOUTHWEST MONTANA

CITY           SKY/WX    TMP DP  RH WIND       PRES   REMARKS
BOZEMAN        CLEAR     52  38  58 W6        30.30R
DILLON         CLEAR     49  35  58 E8        30.28R
W YELLOWSTONE  CLEAR     37  30  75 CALM      30.35R
ENNIS          CLEAR     45  36  70 S3        30.35R
THREE FORKS      N/A     50  39  65 CALM      30.26R
$$

MTZ009-010-012-014-046-048-049-054-240800-
EAST SLOPES AND CENTRAL MONTANA

CITY           SKY/WX    TMP DP  RH WIND       PRES   REMARKS
CUT BANK       CLOUDY    54  43  66 E3        30.31S
GREAT FALLS    CLOUDY    57  39  51 E5        30.31S
MALMSTROM AFB  CLOUDY    54  46  76 SE5       30.30S
HELENA         CLEAR     56  38  50 W9        30.29S
CHOTEAU          N/A     52  43  71 CALM      30.33S
$$

MTZ011-013-016-021-045-047-050-051-240800-
NORTH CENTRAL MONTANA

CITY           SKY/WX    TMP DP  RH WIND       PRES   REMARKS
HAVRE          CLEAR     43  36  76 SW5       30.26S
LEWISTOWN      PTCLDY    46  38  73 SE5       30.31S
N BAR RANCH    CLOUDY    45  34  65 W6        30.34S
CHINOOK          N/A     48  37  66 CALM      30.25R
FORT BENTON      N/A     55  41  58 MISG      30.30S
$$

MTZ017>020-022>027-061-062-240800-
NORTHEAST MONTANA

CITY           SKY/WX    TMP DP  RH WIND       PRES   REMARKS
GLASGOW        MOCLDY    52  31  44 N6        30.20R
JORDAN           N/A     47  30  51 W8        30.23S
SIDNEY         MOCLDY    52  37  56 NE8       30.19R
WOLF POINT     CLOUDY    54  36  50 NE5       30.21R
MALTA          PTCLDY    46  39  76 CALM      30.23R
PLENTYWOOD       N/A     43  36  75 CALM      30.19R
$$

MTZ028>42-056>058-240800-
SOUTHCENTRAL AND SOUTHEAST MONTANA

CITY           SKY/WX    TMP DP  RH WIND       PRES   REMARKS
BAKER          CLEAR     49  29  46 W3        30.22S
BILLINGS       CLOUDY    59  39  47 NW6       30.30R
LIVINGSTON     PTCLDY    51  37  58 SE10      30.31R
MILES CITY     PTCLDY    51  27  39 W8        30.23S
BIG TIMBER     CLOUDY    52  37  58 N6        30.35S
FORSYTH          N/A     50  32  50 CALM      30.25R
ROUNDUP          N/A     55  32  41 W6        30.18S
$$

REGIONAL REPORTS...DAKOTAS

CITY           SKY/WX    TMP DP  RH WIND       PRES   REMARKS
WILLISTON      MOCLDY    50  37  61 NW12      30.17S
MINOT          MOCLDY    48  43  82 W15       30.08S
DICKINSON      CLEAR     44  31  60 W9        30.13F
BEACH            N/A     46  30  53 W10       30.21S
CROSBY         CLOUDY    48  37  66 NW9       30.16S
TIOGA          CLOUDY    48  37  66 NW10      30.15S
WATFORD CITY   MOCLDY    48  39  71 N5        30.16S
BISMARCK       PTCLDY    48  38  68 SW5       30.10S
GRAND FORKS    CLEAR     49  42  77 W8        29.97S
FARGO          CLEAR     48  39  71 W8        30.00S
BUFFALO SD       N/A     47  30  51 W8        30.15F
RAPID CITY     CLEAR     47  29  49 NW8       30.25R
$$

REGIONAL REPORTS...WYOMING/IDAHO/WASHINGTON

CITY           SKY/WX    TMP DP  RH WIND       PRES   REMARKS
GILLETTE       CLEAR     39  34  82 CALM      30.30S
SHERIDAN       CLEAR     44  37  76 S6        30.30S
BUFFALO WY     CLOUDY    49  34  56 W7        30.34S
CODY           CLEAR     47  32  56 S5        30.35S
YELLOWSTONE LA   N/A     35  28  75 CALM      30.41R
IDAHO FALLS    CLEAR     51  46  83 N3        30.23S
SALMON         CLEAR     50  37  62 CALM      30.22R
BOISE          CLEAR     62  37  39 SE6       30.12S
SPOKANE        CLEAR     66  38  35 CALM      30.19F
$$

REGIONAL REPORTS...ALBERTA

CITY           SKY/WX    TMP DP  RH WIND       PRES   REMARKS
EDMONTON       PTCLDY    52  41  66 SW5       30.23S
CALGARY        MOCLDY    55  45  67 W5        30.32R
LETHBRIDGE     CLOUDY    50  45  81 S6        30.28S
MEDICINE HAT   CLEAR     48  43  81 W3        30.25R
WATERTON GATE    N/A     39  37  93 SW5         N/A
MILK RIVER       N/A     48  43  81 W2          N/A
$$

REGIONAL REPORTS...SASKATCHEWAN

CITY           SKY/WX    TMP DP  RH WIND       PRES   REMARKS
SWIFT CURRENT  CLEAR     43  39  87 SE7       30.22R
REGINA         PTCLDY    39  36  87 NW8       30.19R
SASKATOON      CLEAR     43  39  87 CALM      30.24R
CYPRESS HILLS    N/A     43  36  75 W2          N/A
VAL MARIE        N/A     41  36  81 W3          N/A
ROCKGLEN         N/A     39  34  81 N1          N/A
ASSINIBOIA       N/A     48  43  81 W6          N/A
$$




USA.gov is the U.S. government's official web portal to all federal, state and local government web resources and services.